• In India
  • List of Countries
  • For 7 days
  • Water Temperature
  • Satellite Maps
  • Weather Map
  • Weather Widgets
  • user-avatar
    Login

    Hourly Weather Zaluzhzhya

    Today, 22 September, Saturday

    Time Temperature Precipitation Wind Pressure Humidity
    00:00 +19°C° 0 mm 2 mps 744 mmHg 48%
    01:00 +19°C° 0 mm 2 mps 744 mmHg 49%
    02:00 +18°C° 0 mm 2 mps 744 mmHg 49%
    03:00 +18°C° 0 mm 2 mps 744 mmHg 50%
    04:00 +18°C° 0 mm 2 mps 744 mmHg 51%
    05:00 +17°C° 0 mm 2 mps 744 mmHg 52%
    06:00 +18°C° 0 mm 2 mps 744 mmHg 51%
    07:00 +20°C° 0 mm 3 mps 744 mmHg 51%
    08:00 +21°C° 0 mm 3 mps 744 mmHg 50%
    09:00 +22°C° 0 mm 4 mps 744 mmHg 45%
    10:00 +25°C° 0 mm 4 mps 743 mmHg 40%
    11:00 +27°C° 0 mm 5 mps 743 mmHg 35%
    12:00 +28°C° 0 mm 5 mps 743 mmHg 34%
    13:00 +28°C° 0 mm 5 mps 743 mmHg 33%
    14:00 +29°C° 0 mm 5 mps 742 mmHg 31%
    15:00 +28°C° 0 mm 4 mps 742 mmHg 35%
    16:00 +27°C° 0 mm 3 mps 742 mmHg 39%
    17:00 +26°C° 0 mm 2 mps 742 mmHg 43%
    18:00 +24°C° 0 mm 3 mps 742 mmHg 48%
    19:00 +22°C° 0 mm 3 mps 742 mmHg 53%
    20:00 +20°C° 0 mm 4 mps 742 mmHg 58%
    21:00 +17°C° 0.1 mm 5 mps 742 mmHg 64%
    22:00 +15°C° 0.1 mm 6 mps 743 mmHg 70%
    23:00 +12°C° 0.1 mm 8 mps 743 mmHg 76%

    Tomorrow, 23 September, Sunday

    Time Temperature Precipitation Wind Pressure Humidity
    00:00 +12°C° 0.6 mm 7 mps 744 mmHg 79%
    01:00 +11°C° 0.6 mm 6 mps 744 mmHg 81%
    02:00 +10°C° 0.6 mm 5 mps 744 mmHg 83%
    03:00 +10°C° 0 mm 5 mps 744 mmHg 83%
    04:00 +10°C° 0 mm 4 mps 745 mmHg 82%
    05:00 +10°C° 0 mm 4 mps 745 mmHg 82%
    06:00 +11°C° 0 mm 3 mps 745 mmHg 80%
    07:00 +11°C° 0 mm 3 mps 745 mmHg 78%
    08:00 +12°C° 0 mm 3 mps 745 mmHg 76%
    09:00 +13°C° 0 mm 4 mps 745 mmHg 67%
    10:00 +15°C° 0 mm 4 mps 745 mmHg 58%
    11:00 +17°C° 0 mm 5 mps 746 mmHg 49%
    12:00 +19°C° 0 mm 5 mps 745 mmHg 47%
    13:00 +19°C° 0 mm 5 mps 745 mmHg 44%
    14:00 +20°C° 0 mm 5 mps 745 mmHg 41%
    15:00 +19°C° 0 mm 4 mps 745 mmHg 44%
    16:00 +19°C° 0 mm 3 mps 745 mmHg 46%
    17:00 +19°C° 0 mm 3 mps 745 mmHg 48%
    18:00 +17°C° 0 mm 2 mps 745 mmHg 50%
    19:00 +16°C° 0 mm 2 mps 745 mmHg 52%
    20:00 +15°C° 0 mm 1 mps 745 mmHg 55%
    21:00 +15°C° 0 mm 2 mps 744 mmHg 54%
    22:00 +15°C° 0 mm 2 mps 744 mmHg 54%
    23:00 +14°C° 0 mm 3 mps 744 mmHg 54%

    Day after tomorrow, 24 September, Monday

    Time Temperature Precipitation Wind Pressure Humidity
    00:00 +14°C° 0 mm 4 mps 743 mmHg 52%
    01:00 +14°C° 0 mm 4 mps 743 mmHg 49%
    02:00 +14°C° 0 mm 5 mps 742 mmHg 47%
    03:00 +14°C° 0 mm 6 mps 741 mmHg 49%
    04:00 +15°C° 0 mm 7 mps 740 mmHg 51%
    05:00 +15°C° 0 mm 8 mps 739 mmHg 52%
    06:00 +15°C° 0.6 mm 8 mps 739 mmHg 60%
    07:00 +15°C° 0.6 mm 9 mps 738 mmHg 67%
    08:00 +16°C° 0.6 mm 9 mps 738 mmHg 75%
    09:00 +16°C° 3.3 mm 9 mps 737 mmHg 79%
    10:00 +16°C° 3.3 mm 9 mps 737 mmHg 82%
    11:00 +16°C° 3.3 mm 9 mps 737 mmHg 86%
    12:00 +16°C° 1.2 mm 9 mps 737 mmHg 84%
    13:00 +15°C° 1.2 mm 9 mps 737 mmHg 81%
    14:00 +13°C° 1.2 mm 8 mps 738 mmHg 79%
    15:00 +13°C° 0.1 mm 8 mps 739 mmHg 75%
    16:00 +12°C° 0.1 mm 8 mps 739 mmHg 72%
    17:00 +11°C° 0.1 mm 8 mps 740 mmHg 68%
    18:00 +11°C° 0 mm 8 mps 741 mmHg 69%
    19:00 +10°C° 0 mm 7 mps 741 mmHg 71%
    20:00 +9°C° 0 mm 7 mps 742 mmHg 72%
    21:00 +9°C° 0 mm 7 mps 742 mmHg 73%
    22:00 +9°C° 0 mm 7 mps 742 mmHg 73%
    23:00 +8°C° 0 mm 7 mps 743 mmHg 74%

    25 September, Tuesday

    Time Temperature Precipitation Wind Pressure Humidity
    00:00 +8°C° 0 mm 7 mps 743 mmHg 72%
    01:00 +8°C° 0 mm 7 mps 743 mmHg 71%
    02:00 +6°C° 0 mm 7 mps 743 mmHg 70%
    03:00 +6°C° 0 mm 7 mps 743 mmHg 71%
    04:00 +5°C° 0 mm 7 mps 743 mmHg 72%
    05:00 +5°C° 0 mm 7 mps 743 mmHg 73%
    06:00 +6°C° 0 mm 7 mps 744 mmHg 72%
    07:00 +8°C° 0 mm 7 mps 744 mmHg 71%
    08:00 +7°C° 0 mm 8 mps 745 mmHg 71%
    09:00 +7°C° 0.1 mm 8 mps 746 mmHg 70%
    10:00 +7°C° 0.1 mm 8 mps 746 mmHg 70%
    11:00 +7°C° 0.1 mm 9 mps 747 mmHg 69%
    12:00 +9°C° 0 mm 8 mps 747 mmHg 64%
    13:00 +10°C° 0 mm 8 mps 748 mmHg 58%
    14:00 +10°C° 0 mm 8 mps 748 mmHg 52%
    15:00 +10°C° 0 mm 8 mps 748 mmHg 52%
    16:00 +10°C° 0 mm 7 mps 749 mmHg 53%
    17:00 +9°C° 0 mm 6 mps 749 mmHg 53%
    18:00 +8°C° 0 mm 6 mps 750 mmHg 56%
    19:00 +7°C° 0 mm 5 mps 750 mmHg 60%
    20:00 +7°C° 0 mm 5 mps 751 mmHg 63%
    21:00 +6°C° 0 mm 5 mps 751 mmHg 65%
    22:00 +6°C° 0 mm 5 mps 752 mmHg 67%
    23:00 +6°C° 0 mm 5 mps 752 mmHg 69%

    26 September, Wednesday

    Time Temperature Precipitation Wind Pressure Humidity
    00:00 +5°C° 0 mm 5 mps 752 mmHg 71%
    01:00 +5°C° 0 mm 5 mps 753 mmHg 72%
    02:00 +5°C° 0 mm 5 mps 753 mmHg 74%
    03:00 +3°C° 0 mm 5 mps 754 mmHg 75%
    04:00 +3°C° 0 mm 5 mps 754 mmHg 76%
    05:00 +3°C° 0 mm 5 mps 754 mmHg 77%
    06:00 +3°C° 0 mm 5 mps 755 mmHg 74%
    07:00 +5°C° 0 mm 5 mps 755 mmHg 71%
    08:00 +6°C° 0 mm 5 mps 755 mmHg 68%
    09:00 +7°C° 0 mm 5 mps 755 mmHg 60%
    10:00 +9°C° 0 mm 5 mps 756 mmHg 52%
    11:00 +11°C° 0 mm 6 mps 756 mmHg 44%
    12:00 +11°C° 0 mm 6 mps 755 mmHg 44%
    13:00 +13°C° 0 mm 6 mps 755 mmHg 44%
    14:00 +14°C° 0 mm 6 mps 754 mmHg 43%
    15:00 +13°C° 0 mm 5 mps 754 mmHg 46%
    16:00 +13°C° 0 mm 4 mps 754 mmHg 49%
    17:00 +12°C° 0 mm 3 mps 753 mmHg 52%
    18:00 +11°C° 0 mm 3 mps 753 mmHg 54%
    19:00 +10°C° 0 mm 3 mps 753 mmHg 57%
    20:00 +9°C° 0 mm 3 mps 753 mmHg 59%
    21:00 +9°C° 0 mm 3 mps 753 mmHg 59%
    22:00 +8°C° 0 mm 3 mps 753 mmHg 60%
    23:00 +8°C° 0 mm 3 mps 753 mmHg 60%

    27 September, Thursday

    Time Temperature Precipitation Wind Pressure Humidity
    00:00 +8°C° 0 mm 3 mps 753 mmHg 60%
    01:00 +7°C° 0 mm 4 mps 752 mmHg 60%
    02:00 +7°C° 0 mm 4 mps 752 mmHg 60%
    03:00 +7°C° 0 mm 4 mps 751 mmHg 57%
    04:00 +7°C° 0 mm 5 mps 751 mmHg 55%
    05:00 +8°C° 0 mm 5 mps 751 mmHg 53%
    06:00 +8°C° 0 mm 5 mps 750 mmHg 51%
    07:00 +9°C° 0 mm 5 mps 750 mmHg 50%
    08:00 +9°C° 0 mm 6 mps 750 mmHg 49%
    09:00 +11°C° 0 mm 6 mps 750 mmHg 45%
    10:00 +14°C° 0 mm 6 mps 749 mmHg 41%
    11:00 +16°C° 0 mm 6 mps 749 mmHg 37%
    12:00 +16°C° 0 mm 6 mps 748 mmHg 36%
    13:00 +17°C° 0 mm 6 mps 748 mmHg 34%
    14:00 +19°C° 0 mm 6 mps 747 mmHg 33%
    15:00 +17°C° 0 mm 5 mps 747 mmHg 36%
    16:00 +18°C° 0 mm 4 mps 746 mmHg 38%
    17:00 +17°C° 0 mm 4 mps 746 mmHg 41%
    18:00 +16°C° 0 mm 3 mps 746 mmHg 41%
    19:00 +14°C° 0 mm 3 mps 745 mmHg 41%
    20:00 +13°C° 0 mm 3 mps 745 mmHg 40%
    21:00 +13°C° 0 mm 3 mps 745 mmHg 39%
    22:00 +12°C° 0 mm 3 mps 745 mmHg 38%
    23:00 +12°C° 0 mm 3 mps 744 mmHg 37%
    Show more